FW2026 Weather Reports


time (UTC)temp
C
wind
direction
speed
KPH
gust
KPH
rain 1hr
cm
rain 24hr
cm
rain mn
cm
humidity
%
barometer
mb
20260507060216 8 17 6.4 11.3 0.00 0.28 0.00 82 1014.3
20260507055712 8 13 6.4 9.7 0.00 0.28 0.00 82 1014.3
20260507055213 8 353 4.8 11.3 0.00 0.28 0.00 82 1014.3
20260507054938 8 358 8.0 11.3 0.00 0.28 0.00 82 1014.2
20260507054209 8 347 4.8 11.3 0.00 0.28 0.00 82 1014.3
20260507053709 8 354 6.4 11.3 0.00 0.30 0.00 82 1014.2
20260507053208 8 334 6.4 11.3 0.00 0.33 0.00 82 1014.1
20260507052708 8 358 4.8 11.3 0.00 0.33 0.00 82 1014.2
20260507052439 8 341 6.4 9.7 0.00 0.33 0.00 82 1014.1
20260507051705 8 336 4.8 9.7 0.00 0.36 0.00 82 1014.0
20260507051206 8 330 4.8 9.7 0.00 0.36 0.00 82 1014.0
20260507050706 8 324 6.4 9.7 0.00 0.38 0.00 82 1013.9
20260507050205 8 350 4.8 8.0 0.00 0.41 0.00 82 1013.8
20260507045704 8 329 4.8 9.7 0.00 0.41 0.00 82 1013.7
20260507045205 8 321 4.8 9.7 0.00 0.43 0.00 82 1013.7
20260507044705 8 319 4.8 9.7 0.00 0.43 0.00 82 1013.6
20260507044203 8 338 4.8 8.0 0.00 0.43 0.00 82 1013.5
20260507043935 8 333 4.8 8.0 0.00 0.46 0.00 82 1013.5
20260507043204 8 334 4.8 8.0 0.00 0.48 0.00 82 1013.6
20260507042935 8 333 3.2 8.0 0.00 0.48 0.00 82 1013.4
20260507042204 8 351 3.2 8.0 0.00 0.51 0.00 82 1013.3
20260507041936 8 292 4.8 8.0 0.00 0.51 0.00 82 1013.3
20260507041203 8 333 3.2 8.0 0.00 0.53 0.00 82 1013.3
20260507040704 8 331 4.8 8.0 0.00 0.53 0.00 82 1013.3
20260507040205 8 345 3.2 9.7 0.00 0.56 0.00 82 1013.2
20260507035703 8 336 3.2 9.7 0.00 0.56 0.00 83 1013.2
20260507035203 8 358 4.8 8.0 0.00 0.58 0.00 82 1013.2
20260507034935 8 358 4.8 8.0 0.00 0.61 0.00 83 1013.1
20260507034204 8 334 3.2 9.7 0.00 0.61 0.00 83 1013.0
20260507033703 8 348 3.2 9.7 0.00 0.61 0.00 83 1013.1
20260507033202 8 337 3.2 8.0 0.00 0.61 0.00 83 1013.0
20260507032702 8 321 1.6 8.0 0.00 0.64 0.00 83 1013.1
20260507032439 8 340 3.2 8.0 0.00 0.64 0.00 83 1013.0
20260507031701 8 313 3.2 9.7 0.00 0.66 0.00 83 1013.0
20260507031204 8 330 4.8 9.7 0.00 0.69 0.00 83 1013.0
20260507030703 8 338 3.2 6.4 0.00 0.69 0.00 83 1013.0
20260507030429 8 343 3.2 6.4 0.00 0.69 0.00 83 1012.9
20260507025702 8 343 3.2 6.4 0.00 0.71 0.00 83 1012.9
20260507025202 8 341 1.6 4.8 0.00 0.71 0.00 83 1012.9
20260507024704 8 329 1.6 4.8 0.00 0.71 0.00 83 1012.9
20260507024202 8 344 1.6 4.8 0.00 0.74 0.00 83 1012.9
20260507023702 8 358 3.2 4.8 0.00 0.76 0.00 83 1012.9
20260507023202 8 275 1.6 4.8 0.00 0.76 0.00 83 1012.8
20260507022702 8 307 1.6 4.8 0.00 0.79 0.00 83 1012.8
20260507022204 8 321 0.0 3.2 0.00 0.79 0.00 83 1012.7
20260507021704 8 312 1.6 3.2 0.00 0.81 0.00 83 1012.7
20260507020702 8 275 0.0 1.6 0.00 0.89 0.00 83 1012.7
20260507020202 8 275 0.0 1.6 0.00 0.89 0.00 83 1012.7
20260507015702 8 275 0.0 0.0 0.00 0.91 0.00 83 1012.6
20260507015440 8 275 0.0 0.0 0.00 0.94 0.00 83 1012.6
20260507014658 8 275 0.0 1.6 0.00 0.94 0.00 83 1012.6
20260507014157 8 275 0.0 3.2 0.00 0.97 0.00 83 1012.6
20260507013657 8 275 1.6 3.2 0.00 0.97 0.00 83 1012.7
20260507013430 8 276 0.0 1.6 0.00 0.97 0.00 83 1012.7
20260507012659 8 271 0.0 3.2 0.00 0.99 0.00 83 1012.5
20260507012156 8 271 1.6 3.2 0.00 0.99 0.00 83 1012.5
20260507011927 8 272 0.0 1.6 0.00 0.99 0.00 83 1012.3
20260507011421 8 268 0.0 0.0 0.00 0.99 0.00 83 1012.4
20260507010654 8 268 0.0 0.0 0.00 0.99 0.00 83 1012.4
20260507010154 8 268 0.0 0.0 0.00 0.99 0.00 83 1012.3
20260507005923 8 268 0.0 0.0 0.00 1.02 0.00 83 1012.4
20260507005152 8 268 0.0 0.0 0.00 1.02 0.00 83 1012.4
20260507004652 8 268 0.0 0.0 0.00 1.02 0.00 83 1012.5
20260507004152 8 268 0.0 0.0 0.00 1.04 0.00 83 1012.4
20260507003653 8 268 0.0 1.6 0.00 1.04 0.00 83 1012.5
20260507003152 8 266 0.0 1.6 0.00 1.07 0.00 83 1012.4
20260507002652 8 268 0.0 1.6 0.00 1.07 0.00 83 1012.4
20260507002152 8 268 0.0 1.6 0.00 1.09 0.00 83 1012.3
20260507001650 8 264 1.6 3.2 0.00 1.09 0.00 83 1012.3
20260507001411 8 262 1.6 3.2 0.00 1.09 0.00 83 1012.3
20260507000640 8 257 1.6 3.2 0.00 1.09 0.00 83 1012.2
20260507000141 8 257 0.0 3.2 0.00 0.00 0.00 83 1012.3
20260506235641 8 240 1.6 3.2 0.00 1.12 0.00 83 1012.2
20260506235142 8 252 1.6 3.2 0.00 1.12 0.00 83 1012.2
20260506234641 8 247 0.0 3.2 0.00 1.12 0.00 83 1012.2
20260506234141 8 203 0.0 3.2 0.00 1.14 0.00 83 1012.3
20260506233638 8 250 0.0 3.2 0.00 1.14 0.00 83 1012.2
20260506233138 8 262 1.6 3.2 0.00 1.17 0.00 83 1012.2
20260506232640 8 293 0.0 1.6 0.00 1.17 0.00 83 1012.2
20260506232137 8 293 0.0 1.6 0.00 1.17 0.00 83 1012.1
20260506231636 8 293 0.0 0.0 0.00 1.17 0.00 83 1012.1
20260506231136 8 293 0.0 0.0 0.00 1.17 0.00 83 1012.1
20260506230909 8 293 0.0 1.6 0.00 1.17 0.00 83 1012.1
20260506230135 8 293 0.0 1.6 0.00 1.19 0.00 83 1012.0
20260506225631 8 293 0.0 1.6 0.00 1.19 0.00 83 1012.0
20260506225130 8 337 0.0 1.6 0.00 1.19 0.00 83 1012.0
20260506224632 8 0 0.0 0.0 0.00 1.19 0.00 83 1012.0
20260506224131 8 0 0.0 0.0 0.00 1.22 0.00 82 1012.0
20260506223630 8 0 0.0 1.6 0.00 1.22 0.00 82 1011.9
20260506223131 8 0 0.0 4.8 0.00 1.22 0.00 82 1011.8
20260506222630 8 0 1.6 6.4 0.00 1.22 0.00 82 1011.8
20260506222131 8 358 3.2 6.4 0.00 1.22 0.00 83 1011.8
20260506221631 8 353 3.2 6.4 0.00 1.22 0.00 83 1011.8
20260506221130 8 0 3.2 6.4 0.00 1.24 0.00 83 1011.7
20260506220631 8 1 1.6 6.4 0.00 1.24 0.00 83 1011.6
20260506220131 8 0 3.2 6.4 0.00 1.24 0.00 83 1011.6
20260506215630 8 0 3.2 6.4 0.00 1.24 1.24 83 1011.7
20260506215129 8 357 3.2 6.4 0.00 1.27 1.24 83 1011.6
20260506214900 8 1 4.8 8.0 0.00 1.27 1.24 83 1011.6
20260506214129 8 355 4.8 8.0 0.00 1.27 1.24 83 1011.5
20260506213629 8 3 4.8 8.0 0.00 1.27 1.24 83 1011.4
20260506213129 8 1 3.2 8.0 0.00 1.27 1.24 83 1011.4
20260506212902 8 0 4.8 8.0 0.00 1.27 1.24 83 1011.4
20260506212130 8 0 4.8 6.4 0.00 1.27 1.24 83 1011.4
20260506211629 8 0 4.8 6.4 0.00 1.27 1.24 83 1011.4
20260506211136 8 355 3.2 9.7 0.00 1.30 1.24 83 1011.4
20260506210356 8 358 3.2 8.0 0.00 1.30 1.24 83 1011.3
20260506205625 8 358 3.2 8.0 0.00 1.30 1.24 82 1011.2
20260506205357 8 343 4.8 8.0 0.00 1.30 1.24 83 1011.2
20260506204625 8 338 6.4 9.7 0.00 1.30 1.24 83 1011.1
20260506204124 8 0 6.4 9.7 0.00 1.30 1.24 83 1011.1
20260506203626 8 341 6.4 9.7 0.00 1.30 1.24 83 1011.2
20260506203123 8 0 6.4 11.3 0.00 1.30 1.24 83 1011.2
20260506202623 8 354 6.4 11.3 0.00 1.32 1.24 83 1011.2
20260506202123 8 302 6.4 9.7 0.00 1.32 1.24 83 1011.2
20260506201624 8 334 4.8 8.0 0.00 1.32 1.24 83 1011.1
20260506201120 8 357 4.8 8.0 0.00 1.32 1.24 83 1011.2
20260506200618 8 338 4.8 8.0 0.00 1.32 1.24 83 1011.2
20260506200353 8 353 3.2 6.4 0.00 1.32 1.24 83 1011.2
20260506195619 8 347 1.6 6.4 0.00 1.35 1.24 83 1011.0
20260506195121 8 334 3.2 6.4 0.00 1.35 1.24 83 1011.0
20260506194848 8 354 4.8 6.4 0.00 1.35 1.24 83 1011.0
20260506194353 8 350 4.8 6.4 0.00 1.35 1.24 83 1010.9
20260506193616 8 345 3.2 6.4 0.00 1.35 1.24 83 1010.8
20260506193113 8 353 3.2 6.4 0.00 1.35 1.24 83 1010.8
20260506192613 8 355 3.2 9.7 0.00 1.35 1.24 83 1010.8
20260506192118 8 20 6.4 9.7 0.00 1.35 1.24 83 1010.7
20260506191609 8 4 6.4 9.7 0.00 1.35 1.24 83 1010.6
20260506191110 8 0 6.4 11.3 0.00 1.35 1.24 83 1010.7
20260506190841 8 357 8.0 11.3 0.00 1.35 1.24 83 1010.6
20260506190112 9 341 6.4 9.7 0.00 1.35 1.24 83 1010.4
20260506185604 9 336 3.2 8.0 0.00 1.35 1.24 83 1010.5
20260506185339 8 4 3.2 8.0 0.00 1.35 1.24 82 1010.5
20260506184841 8 336 1.6 6.4 0.00 1.35 1.24 83 1010.4
20260506184103 8 13 3.2 6.4 0.00 1.35 1.24 83 1010.4
20260506183830 8 358 1.6 6.4 0.00 1.35 1.24 82 1010.3
20260506183057 8 24 1.6 4.8 0.00 1.35 1.24 82 1010.2
20260506182555 8 7 3.2 8.0 0.00 1.35 1.24 82 1010.3
20260506182053 8 21 4.8 11.3 0.00 1.35 1.24 82 1010.2
20260506181825 8 30 8.0 14.5 0.00 1.35 1.24 82 1010.1
20260506181054 9 18 8.0 14.5 0.00 1.35 1.24 82 1010.0
20260506180554 9 319 4.8 9.7 0.00 1.35 1.24 82 1010.0
20260506180058 9 326 4.8 9.7 0.00 1.35 1.24 81 1010.0
20260506175554 9 351 6.4 16.1 0.00 1.35 1.24 81 1009.9
20260506175048 9 330 8.0 16.1 0.00 1.35 1.24 81 1009.9
20260506174548 9 11 9.7 14.5 0.00 1.35 1.24 81 1009.9
20260506174047 9 0 8.0 14.5 0.00 1.35 1.24 81 1009.7
20260506173546 9 10 8.0 17.7 0.00 1.35 1.24 81 1009.7
20260506173047 9 0 9.7 17.7 0.00 1.35 1.24 81 1009.7
20260506172548 9 23 9.7 17.7 0.00 1.35 1.24 81 1009.5
20260506172043 9 354 6.4 19.3 0.00 1.35 1.24 81 1009.5
20260506171544 9 41 8.0 16.1 0.00 1.35 1.24 81 1009.4
20260506171042 9 355 3.2 9.7 0.00 1.35 1.24 81 1009.4
20260506170542 9 343 4.8 11.3 0.00 1.35 1.24 81 1009.3
20260506170043 9 357 6.4 11.3 0.00 1.35 1.24 81 1009.4
20260506165540 9 1 4.8 11.3 0.00 1.35 1.24 81 1009.5
20260506165041 9 47 6.4 16.1 0.00 1.35 1.24 81 1009.4
20260506164539 9 11 9.7 16.1 0.00 1.35 1.24 81 1009.3
20260506164039 9 1 8.0 16.1 0.00 1.35 1.24 81 1009.3
20260506163537 9 347 8.0 16.1 0.00 1.35 1.24 81 1009.2
20260506163036 9 27 9.7 16.1 0.00 1.35 1.24 81 1009.3
20260506162536 9 14 8.0 19.3 0.00 1.35 1.24 81 1009.2
20260506162043 9 341 8.0 19.3 0.00 1.35 1.24 81 1009.2
20260506161536 9 18 8.0 17.7 0.00 1.35 1.24 81 1009.3
20260506161313 9 354 9.7 17.7 0.00 1.35 1.24 82 1009.2
20260506160536 9 338 4.8 9.7 0.00 1.35 1.24 82 1009.2
20260506160043 9 353 4.8 14.5 0.00 1.35 1.24 82 1009.2
20260506155533 9 4 6.4 16.1 0.00 1.35 1.24 82 1009.2
20260506155034 9 48 6.4 17.7 0.00 1.35 1.24 82 1009.2
20260506154533 9 353 9.7 17.7 0.00 1.35 1.24 82 1009.1
20260506154032 9 32 8.0 17.7 0.00 1.35 1.24 83 1009.2
20260506153532 9 23 11.3 17.7 0.00 1.35 1.24 83 1009.0
20260506153030 9 4 4.8 16.1 0.00 1.35 1.24 83 1009.1
20260506152530 9 355 9.7 16.1 0.00 1.35 1.24 83 1009.1
20260506152300 9 32 9.7 16.1 0.00 1.35 1.24 83 1009.2
20260506151523 9 0 6.4 16.1 0.00 1.35 1.24 83 1009.1
20260506151023 9 358 8.0 16.1 0.00 1.35 1.24 83 1009.0
20260506150523 9 357 9.7 16.1 0.00 1.35 1.24 83 1009.0
20260506150304 9 324 9.7 14.5 0.00 1.35 1.24 83 1009.0
20260506145522 9 323 9.7 17.7 0.00 1.35 1.24 83 1009.1
20260506145019 9 330 9.7 17.7 0.00 1.35 1.24 83 1009.0
20260506144521 9 358 6.4 14.5 0.00 1.35 1.24 83 1008.9
20260506144020 9 344 8.0 16.1 0.00 1.35 1.24 83 1008.9
20260506143521 9 343 9.7 17.7 0.00 1.35 1.24 83 1008.9
20260506143019 9 329 9.7 19.3 0.00 1.35 1.24 83 1008.9
20260506142752 9 336 9.7 20.9 0.00 1.35 1.24 83 1009.0
20260506142019 9 0 9.7 20.9 0.00 1.35 1.24 84 1008.9
20260506141518 9 351 9.7 17.7 0.00 1.35 1.24 84 1008.8
20260506141018 9 350 11.3 17.7 0.00 1.35 1.24 84 1008.8
20260506140519 9 336 6.4 14.5 0.00 1.35 1.24 85 1008.8
20260506140021 9 3 8.0 16.1 0.00 1.35 1.24 85 1008.9
20260506135019 9 1 6.4 9.7 0.00 1.35 1.24 85 1008.9
20260506134518 9 6 8.0 14.5 0.00 1.35 1.24 85 1008.9
20260506134017 9 351 8.0 16.1 0.00 1.35 1.24 85 1008.8
20260506133517 9 345 8.0 16.1 0.00 1.35 1.24 85 1008.8
20260506133013 9 296 6.4 16.1 0.00 1.35 1.24 86 1008.8
20260506132747 9 353 9.7 17.7 0.03 1.35 1.24 86 1008.7
20260506132019 9 0 8.0 19.3 0.03 1.35 1.24 86 1008.8
20260506131515 9 317 11.3 19.3 0.03 1.35 1.24 86 1008.8
20260506131015 9 350 11.3 17.7 0.03 1.35 1.24 86 1008.8
20260506130514 9 344 9.7 16.1 0.03 1.35 1.24 86 1008.6
20260506130016 9 344 8.0 16.1 0.03 1.32 1.24 86 1008.6
20260506125512 9 320 8.0 19.3 0.03 1.32 1.24 86 1008.6
20260506125012 8 0 8.0 22.5 0.03 1.32 1.24 87 1008.6
20260506124515 8 357 14.5 22.5 0.03 1.32 1.24 86 1008.5
20260506124015 8 330 11.3 16.1 0.03 1.32 1.24 86 1008.6
20260506123514 8 0 9.7 16.1 0.03 1.32 1.24 86 1008.6
20260506123014 8 0 12.9 17.7 0.03 1.32 1.24 86 1008.6
20260506122506 8 20 8.0 17.7 0.00 1.32 1.22 86 1008.4
20260506122005 9 358 6.4 16.1 0.03 1.32 1.22 87 1008.4
20260506121505 8 343 9.7 19.3 0.03 1.32 1.22 87 1008.4
20260506121006 9 14 6.4 24.1 0.03 1.32 1.22 87 1008.3
20260506120517 8 0 12.9 24.1 0.03 1.32 1.22 87 1008.3
20260506120007 9 331 9.7 19.3 0.03 1.30 1.22 87 1008.3
20260506115504 8 0 11.3 22.5 0.03 1.30 1.22 87 1008.2
20260506115006 9 340 14.5 22.5 0.05 1.30 1.22 87 1008.2
20260506114502 8 357 11.3 24.1 0.05 1.30 1.22 87 1008.3
20260506114001 8 353 14.5 24.1 0.05 1.30 1.22 87 1008.2
20260506113502 8 0 12.9 22.5 0.05 1.30 1.22 88 1008.1
20260506112959 8 341 14.5 22.5 0.05 1.30 1.22 88 1008.1
20260506112459 8 0 11.3 22.5 0.05 1.30 1.22 88 1008.0
20260506112002 8 4 11.3 19.3 0.05 1.30 1.19 88 1008.1
20260506111459 8 14 11.3 19.3 0.05 1.30 1.19 88 1008.0
20260506110958 8 0 8.0 20.9 0.05 1.30 1.19 88 1008.0
20260506110459 8 345 12.9 20.9 0.05 1.30 1.19 88 1008.0
20260506105456 8 355 12.9 22.5 0.05 1.27 1.19 88 1008.0
20260506104955 8 345 14.5 22.5 0.05 1.27 1.17 88 1008.0
20260506104456 9 344 11.3 20.9 0.05 1.27 1.17 88 1007.9
20260506104229 9 348 11.3 20.9 0.05 1.27 1.17 88 1007.9
20260506103455 9 350 11.3 19.3 0.05 1.27 1.17 88 1007.8
20260506102953 9 329 9.7 17.7 0.05 1.27 1.17 88 1007.8
20260506102454 9 348 9.7 17.7 0.05 1.27 1.17 88 1007.8
20260506101953 9 0 9.7 16.1 0.05 1.27 1.17 88 1007.7
20260506101452 9 354 11.3 20.9 0.05 1.27 1.17 88 1007.7
20260506100950 9 327 11.3 20.9 0.05 1.27 1.17 88 1007.7
20260506100450 9 358 9.7 17.7 0.05 1.27 1.17 88 1007.7
20260506095950 10 353 9.7 16.1 0.05 1.19 1.17 88 1007.5
20260506095724 9 0 9.7 16.1 0.05 1.19 1.14 88 1007.5
20260506094950 9 330 8.0 14.5 0.05 1.19 1.14 88 1007.5
20260506094447 9 351 6.4 14.5 0.05 1.19 1.14 88 1007.4
20260506093946 9 337 9.7 14.5 0.05 1.19 1.14 88 1007.4
20260506093718 10 337 8.0 14.5 0.05 1.19 1.12 88 1007.4
20260506092944 10 357 9.7 14.5 0.05 1.19 1.12 88 1007.4
20260506092445 9 6 6.4 14.5 0.05 1.19 1.12 88 1007.4
20260506091944 9 344 9.7 17.7 0.05 1.19 1.12 88 1007.3
20260506091442 9 351 8.0 17.7 0.05 1.19 1.12 88 1007.3
20260506090942 9 331 8.0 14.5 0.05 1.19 1.12 88 1007.3
20260506090440 9 10 8.0 14.5 0.03 1.19 1.09 88 1007.2
20260506085941 9 355 9.7 16.1 0.05 1.17 1.09 88 1007.1
20260506085449 9 347 9.7 16.1 0.05 1.17 1.09 88 1007.1
20260506084714 9 353 8.0 11.3 0.05 1.17 1.09 88 1007.0
20260506083940 9 334 8.0 17.7 0.05 1.17 1.09 89 1007.0
20260506083440 9 0 9.7 17.7 0.05 1.17 1.09 88 1007.0
20260506082940 9 327 8.0 16.1 0.05 1.17 1.09 89 1006.9
20260506082709 9 353 11.3 16.1 0.05 1.17 1.09 88 1006.9
20260506081934 9 347 8.0 11.3 0.05 1.17 1.09 88 1006.9
20260506081708 9 344 8.0 14.5 0.05 1.17 1.09 89 1006.8
20260506080935 9 354 9.7 14.5 0.05 1.17 1.09 89 1006.8
20260506080434 9 24 9.7 14.5 0.05 1.17 1.07 89 1006.8
20260506073432 9 336 11.3 20.9 0.05 1.12 1.04 88 1006.7
20260506072934 9 0 14.5 20.9 0.05 1.12 1.04 89 1006.7
20260506072432 9 358 6.4 16.1 0.05 1.12 1.04 88 1006.6
20260506071933 9 0 9.7 19.3 0.05 1.12 1.02 88 1006.7
20260506070933 9 35 9.7 16.1 0.05 1.12 1.02 88 1006.7
20260506070431 9 0 8.0 17.7 0.05 1.12 1.02 89 1006.6
20260506061931 9 0 9.7 16.1 0.08 1.07 0.99 89 1006.4
20260506061430 9 347 9.7 17.7 0.10 1.07 0.99 89 1006.4
20260506061205 9 8 12.9 17.7 0.13 1.07 0.99 89 1006.4
20260506060431 9 0 9.7 16.1 0.10 1.07 0.97 89 1006.3